Year,Month,Day,Hour,Minute,Value (Times are PST for temperature in C)
2014,01,28,00,00,4.70
2014,01,28,00,01,4.70
2014,01,28,00,02,4.70
2014,01,28,00,03,4.70
2014,01,28,00,04,4.70
2014,01,28,00,05,4.70
2014,01,28,00,06,4.70
2014,01,28,00,07,4.70
2014,01,28,00,08,4.70
2014,01,28,00,09,4.70
2014,01,28,00,10,4.70
2014,01,28,00,11,4.70
2014,01,28,00,12,4.70
2014,01,28,00,13,4.70
2014,01,28,00,14,4.60
2014,01,28,00,15,4.60
2014,01,28,00,16,4.60
2014,01,28,00,17,4.60
2014,01,28,00,18,4.60
2014,01,28,00,19,4.60
2014,01,28,00,20,4.60
2014,01,28,00,21,4.70
2014,01,28,00,22,4.70
2014,01,28,00,23,4.70
2014,01,28,00,24,4.70
2014,01,28,00,25,4.70
2014,01,28,00,26,4.70
2014,01,28,00,27,4.70
2014,01,28,00,28,4.70
2014,01,28,00,29,4.70
2014,01,28,00,30,4.70
2014,01,28,00,31,4.70
2014,01,28,00,32,4.70
2014,01,28,00,33,4.70
2014,01,28,00,34,4.70
2014,01,28,00,35,4.70
2014,01,28,00,36,4.70
2014,01,28,00,37,4.70
2014,01,28,00,38,4.70
2014,01,28,00,39,4.70
2014,01,28,00,40,4.70
2014,01,28,00,41,4.70
2014,01,28,00,42,4.70
2014,01,28,00,43,4.70
2014,01,28,00,44,4.70
2014,01,28,00,45,4.70
2014,01,28,00,46,4.70
2014,01,28,00,47,4.70
2014,01,28,00,48,4.70
2014,01,28,00,49,4.70
2014,01,28,00,50,4.70
2014,01,28,00,51,4.70
2014,01,28,00,52,4.70
2014,01,28,00,53,4.70
2014,01,28,00,54,4.70
2014,01,28,00,55,4.70
2014,01,28,00,56,4.70
2014,01,28,00,57,4.70
2014,01,28,00,58,4.80
2014,01,28,00,59,4.80
2014,01,28,01,00,4.80
2014,01,28,01,01,4.80
2014,01,28,01,02,4.80
2014,01,28,01,03,4.80
2014,01,28,01,04,4.80
2014,01,28,01,05,4.80
2014,01,28,01,06,4.80
2014,01,28,01,07,4.80
2014,01,28,01,08,4.80
2014,01,28,01,09,4.90
2014,01,28,01,10,4.90
2014,01,28,01,11,4.90
2014,01,28,01,12,4.90
2014,01,28,01,13,4.90
2014,01,28,01,14,4.90
2014,01,28,01,15,4.90
2014,01,28,01,16,4.90
2014,01,28,01,17,4.90
2014,01,28,01,18,4.90
2014,01,28,01,19,4.90
2014,01,28,01,20,4.90
2014,01,28,01,21,4.90
2014,01,28,01,22,4.90
2014,01,28,01,23,4.90
2014,01,28,01,24,4.90
2014,01,28,01,25,4.80
2014,01,28,01,26,4.80
2014,01,28,01,27,4.80
2014,01,28,01,28,4.80
2014,01,28,01,29,4.80
2014,01,28,01,30,4.80
2014,01,28,01,31,4.80
2014,01,28,01,32,4.80
2014,01,28,01,33,4.80
2014,01,28,01,34,4.80
2014,01,28,01,35,4.80
2014,01,28,01,36,4.80
2014,01,28,01,37,4.90
2014,01,28,01,38,4.90
2014,01,28,01,39,4.90
2014,01,28,01,40,4.90
2014,01,28,01,41,4.90
2014,01,28,01,42,4.90
2014,01,28,01,43,4.90
2014,01,28,01,44,4.90
2014,01,28,01,45,4.90
2014,01,28,01,46,4.90
2014,01,28,01,47,4.90
2014,01,28,01,48,4.90
2014,01,28,01,49,4.90
2014,01,28,01,50,4.90
2014,01,28,01,51,4.90
2014,01,28,01,52,4.80
2014,01,28,01,53,4.80
2014,01,28,01,54,4.80
2014,01,28,01,55,4.80
2014,01,28,01,56,4.80
2014,01,28,01,57,4.80
2014,01,28,01,58,4.80
2014,01,28,01,59,4.80
2014,01,28,02,00,4.80
2014,01,28,02,01,4.80
2014,01,28,02,02,4.80
2014,01,28,02,03,4.80
2014,01,28,02,04,4.80
2014,01,28,02,05,4.80
2014,01,28,02,06,4.80
2014,01,28,02,07,4.70
2014,01,28,02,08,4.70
2014,01,28,02,09,4.70
2014,01,28,02,10,4.70
2014,01,28,02,11,4.70
2014,01,28,02,12,4.70
2014,01,28,02,13,4.70
2014,01,28,02,14,4.70
2014,01,28,02,15,4.70
2014,01,28,02,16,4.70
2014,01,28,02,17,4.70
2014,01,28,02,18,4.70
2014,01,28,02,19,4.70
2014,01,28,02,20,4.70
2014,01,28,02,21,4.70
2014,01,28,02,22,4.70
2014,01,28,02,23,4.70
2014,01,28,02,24,4.70
2014,01,28,02,25,4.70
2014,01,28,02,26,4.70
2014,01,28,02,27,4.70
2014,01,28,02,28,4.70
2014,01,28,02,29,4.70
2014,01,28,02,30,4.70
2014,01,28,02,31,4.70
2014,01,28,02,32,4.70
2014,01,28,02,33,4.70
2014,01,28,02,34,4.70
2014,01,28,02,35,4.60
2014,01,28,02,36,4.60
2014,01,28,02,37,4.60
2014,01,28,02,38,4.60
2014,01,28,02,39,4.60
2014,01,28,02,40,4.60
2014,01,28,02,41,4.60
2014,01,28,02,42,4.60
2014,01,28,02,43,4.60
2014,01,28,02,44,4.60
2014,01,28,02,45,4.60
2014,01,28,02,46,4.60
2014,01,28,02,47,4.60
2014,01,28,02,48,4.60
2014,01,28,02,49,4.60
2014,01,28,02,50,4.60
2014,01,28,02,51,4.60
2014,01,28,02,52,4.60
2014,01,28,02,53,4.60
2014,01,28,02,54,4.60
2014,01,28,02,55,4.60
2014,01,28,02,56,4.60
2014,01,28,02,57,4.60
2014,01,28,02,58,4.60
2014,01,28,02,59,4.60
2014,01,28,03,00,4.60
2014,01,28,03,01,4.60
2014,01,28,03,02,4.60
2014,01,28,03,06,4.70
2014,01,28,03,07,4.70
2014,01,28,03,08,4.70
2014,01,28,03,09,4.70
2014,01,28,03,10,4.70
2014,01,28,03,11,4.70
2014,01,28,03,12,4.70
2014,01,28,03,13,4.70
2014,01,28,03,14,4.70
2014,01,28,03,15,4.70
2014,01,28,03,16,4.70
2014,01,28,03,17,4.70
2014,01,28,03,18,4.70
2014,01,28,03,19,4.70
2014,01,28,03,20,4.70
2014,01,28,03,21,4.70
2014,01,28,03,22,4.70
2014,01,28,03,23,4.70
2014,01,28,03,24,4.70
2014,01,28,03,25,4.70
2014,01,28,03,26,4.70
2014,01,28,03,27,4.70
2014,01,28,03,28,4.70
2014,01,28,03,29,4.70
2014,01,28,03,30,4.70
2014,01,28,03,31,4.70
2014,01,28,03,32,4.70
2014,01,28,03,33,4.70
2014,01,28,03,34,4.70
2014,01,28,03,35,4.70
2014,01,28,03,36,4.70
2014,01,28,03,37,4.70
2014,01,28,03,38,4.70
2014,01,28,03,39,4.70
2014,01,28,03,40,4.70
2014,01,28,03,41,4.70
2014,01,28,03,42,4.80
2014,01,28,03,43,4.70
2014,01,28,03,44,4.70
2014,01,28,03,45,4.70
2014,01,28,03,46,4.70
2014,01,28,03,47,4.70
2014,01,28,03,48,4.70
2014,01,28,03,49,4.70
2014,01,28,03,50,4.70
2014,01,28,03,51,4.70
2014,01,28,03,52,4.70
2014,01,28,03,53,4.70
2014,01,28,03,54,4.70
2014,01,28,03,55,4.70
2014,01,28,03,56,4.70
2014,01,28,03,57,4.70
2014,01,28,03,58,4.70
2014,01,28,03,59,4.70
2014,01,28,04,00,4.70
2014,01,28,04,01,4.70
2014,01,28,04,02,4.70
2014,01,28,04,03,4.70
2014,01,28,04,04,4.70
2014,01,28,04,05,4.70
2014,01,28,04,06,4.70
2014,01,28,04,07,4.70
2014,01,28,04,08,4.70
2014,01,28,04,09,4.70
2014,01,28,04,10,4.70
2014,01,28,04,11,4.70
2014,01,28,04,12,4.70
2014,01,28,04,13,4.70
2014,01,28,04,14,4.70
2014,01,28,04,15,4.70
2014,01,28,04,16,4.70
2014,01,28,04,17,4.70
2014,01,28,04,18,4.70
2014,01,28,04,19,4.70
2014,01,28,04,20,4.70
2014,01,28,04,21,4.70
2014,01,28,04,22,4.70
2014,01,28,04,23,4.70
2014,01,28,04,24,4.70
2014,01,28,04,25,4.70
2014,01,28,04,26,4.70
2014,01,28,04,27,4.70
2014,01,28,04,28,4.70
2014,01,28,04,29,4.70
2014,01,28,04,30,4.70
2014,01,28,04,31,4.70
2014,01,28,04,32,4.70
2014,01,28,04,33,4.70
2014,01,28,04,34,4.70
2014,01,28,04,35,4.70
2014,01,28,04,36,4.70
2014,01,28,04,37,4.70
2014,01,28,04,38,4.70
2014,01,28,04,39,4.70
2014,01,28,04,40,4.70
2014,01,28,04,41,4.70
2014,01,28,04,42,4.70
2014,01,28,04,43,4.70
2014,01,28,04,44,4.70
2014,01,28,04,45,4.70
2014,01,28,04,46,4.70
2014,01,28,04,47,4.70
2014,01,28,04,48,4.70
2014,01,28,04,49,4.70
2014,01,28,04,50,4.70
2014,01,28,04,51,4.70
2014,01,28,04,52,4.70
2014,01,28,04,53,4.70
2014,01,28,04,54,4.70
2014,01,28,04,55,4.70
2014,01,28,04,56,4.70
2014,01,28,04,57,4.70
2014,01,28,04,58,4.70
2014,01,28,04,59,4.70
2014,01,28,05,00,4.70
2014,01,28,05,01,4.70
2014,01,28,05,02,4.70
2014,01,28,05,03,4.70
2014,01,28,05,04,4.70
2014,01,28,05,05,4.70
2014,01,28,05,06,4.70
2014,01,28,05,07,4.60
2014,01,28,05,08,4.60
2014,01,28,05,09,4.60
2014,01,28,05,10,4.60
2014,01,28,05,11,4.60
2014,01,28,05,12,4.60
2014,01,28,05,13,4.60
2014,01,28,05,14,4.60
2014,01,28,05,15,4.60
2014,01,28,05,16,4.60
2014,01,28,05,17,4.60
2014,01,28,05,18,4.60
2014,01,28,05,19,4.60
2014,01,28,05,20,4.60
2014,01,28,05,21,4.60
2014,01,28,05,22,4.60
2014,01,28,05,23,4.50
2014,01,28,05,24,4.50
2014,01,28,05,25,4.50
2014,01,28,05,26,4.50
2014,01,28,05,27,4.50
2014,01,28,05,28,4.50
2014,01,28,05,29,4.50
2014,01,28,05,30,4.50
2014,01,28,05,31,4.50
2014,01,28,05,32,4.50
2014,01,28,05,33,4.50
2014,01,28,05,34,4.50
2014,01,28,05,35,4.50
2014,01,28,05,36,4.50
2014,01,28,05,37,4.50
2014,01,28,05,38,4.50
2014,01,28,05,39,4.50
2014,01,28,05,40,4.50
2014,01,28,05,41,4.50
2014,01,28,05,42,4.50
2014,01,28,05,43,4.50
2014,01,28,05,44,4.50
2014,01,28,05,45,4.60
2014,01,28,05,46,4.60
2014,01,28,05,47,4.60
2014,01,28,05,48,4.60
2014,01,28,05,49,4.60
2014,01,28,05,50,4.60
2014,01,28,05,51,4.60
2014,01,28,05,52,4.60
2014,01,28,05,53,4.60
2014,01,28,05,54,4.60
2014,01,28,05,55,4.60
2014,01,28,05,56,4.60
2014,01,28,05,57,4.60
2014,01,28,05,58,4.60
2014,01,28,05,59,4.60
2014,01,28,06,00,4.60
2014,01,28,06,01,4.60
2014,01,28,06,02,4.60
2014,01,28,06,03,4.60
2014,01,28,06,04,4.60
2014,01,28,06,05,4.60
2014,01,28,06,06,4.60
2014,01,28,06,07,4.60
2014,01,28,06,08,4.60
2014,01,28,06,09,4.60
2014,01,28,06,10,4.60
2014,01,28,06,11,4.60
2014,01,28,06,12,4.60
2014,01,28,06,13,4.60
2014,01,28,06,14,4.60
2014,01,28,06,15,4.60
2014,01,28,06,16,4.60
2014,01,28,06,17,4.60
2014,01,28,06,18,4.60
2014,01,28,06,19,4.70
2014,01,28,06,20,4.60
2014,01,28,06,21,4.70
2014,01,28,06,22,4.70
2014,01,28,06,23,4.70
2014,01,28,06,24,4.70
2014,01,28,06,25,4.70
2014,01,28,06,26,4.70
2014,01,28,06,27,4.70
2014,01,28,06,28,4.70
2014,01,28,06,29,4.80
2014,01,28,06,30,4.80
2014,01,28,06,31,4.80
2014,01,28,06,32,4.80
2014,01,28,06,33,4.90
2014,01,28,06,34,4.90
2014,01,28,06,35,4.90
2014,01,28,06,36,4.90
2014,01,28,06,37,4.90
2014,01,28,06,38,5.00
2014,01,28,06,39,5.00
2014,01,28,06,40,5.10
2014,01,28,06,41,5.10
2014,01,28,06,42,5.10
2014,01,28,06,43,5.20
2014,01,28,06,44,5.30
2014,01,28,06,45,5.30
2014,01,28,06,46,5.40
2014,01,28,06,47,5.40
2014,01,28,06,48,5.40
2014,01,28,06,49,5.40
2014,01,28,06,50,5.40
2014,01,28,06,51,5.50
2014,01,28,06,52,5.50
2014,01,28,06,53,5.60
2014,01,28,06,54,5.70
2014,01,28,06,55,5.70
2014,01,28,06,56,5.80
2014,01,28,06,57,5.80
2014,01,28,06,58,5.80
2014,01,28,06,59,5.80
2014,01,28,07,00,5.80
2014,01,28,07,01,5.80
2014,01,28,07,02,5.90
2014,01,28,07,03,5.90
2014,01,28,07,04,5.90
2014,01,28,07,05,5.90
2014,01,28,07,06,6.00
2014,01,28,07,07,6.00
2014,01,28,07,08,6.00
2014,01,28,07,09,6.10
2014,01,28,07,10,6.10
2014,01,28,07,11,6.10
2014,01,28,07,12,6.10
2014,01,28,07,13,6.10
2014,01,28,07,14,6.10
2014,01,28,07,15,6.10
2014,01,28,07,16,6.10
2014,01,28,07,17,6.10
2014,01,28,07,18,6.10
2014,01,28,07,19,6.10
2014,01,28,07,20,6.10
2014,01,28,07,21,6.10
2014,01,28,07,22,6.10
2014,01,28,07,23,6.10
2014,01,28,07,24,6.10
2014,01,28,07,25,6.10
2014,01,28,07,26,6.10
2014,01,28,07,27,6.10
2014,01,28,07,28,6.10
2014,01,28,07,29,6.10
2014,01,28,07,30,6.10
2014,01,28,07,31,6.20
2014,01,28,07,32,6.20
2014,01,28,07,33,6.20
2014,01,28,07,34,6.20
2014,01,28,07,35,6.10
2014,01,28,07,36,6.10
2014,01,28,07,37,6.10
2014,01,28,07,38,6.10
2014,01,28,07,39,6.10
2014,01,28,07,40,6.10
2014,01,28,07,41,6.10
2014,01,28,07,42,6.10
2014,01,28,07,43,6.10
2014,01,28,07,44,6.10
2014,01,28,07,45,6.10
2014,01,28,07,46,6.10
2014,01,28,07,47,6.10
2014,01,28,07,48,6.00
2014,01,28,07,49,6.00
2014,01,28,07,50,6.00
2014,01,28,07,51,6.00
2014,01,28,07,52,6.00
2014,01,28,07,53,6.00
2014,01,28,07,54,6.00
2014,01,28,07,55,6.00
2014,01,28,07,56,6.00
2014,01,28,07,57,6.00
2014,01,28,07,58,5.90
2014,01,28,07,59,5.90
2014,01,28,08,00,5.90
2014,01,28,08,01,5.90
2014,01,28,08,02,5.90
2014,01,28,08,03,5.90
2014,01,28,08,04,5.90
2014,01,28,08,05,5.90
2014,01,28,08,06,5.90
2014,01,28,08,07,5.90
2014,01,28,08,08,5.90
2014,01,28,08,09,5.90
2014,01,28,08,10,5.90
2014,01,28,08,11,5.90
2014,01,28,08,12,5.80
2014,01,28,08,13,5.80
2014,01,28,08,14,5.80
2014,01,28,08,15,5.80
2014,01,28,08,16,5.80
2014,01,28,08,17,5.80
2014,01,28,08,18,5.80
2014,01,28,08,19,5.70
2014,01,28,08,20,5.70
2014,01,28,08,21,5.70
2014,01,28,08,22,5.70
2014,01,28,08,23,5.70
2014,01,28,08,24,5.60
2014,01,28,08,25,5.60
2014,01,28,08,26,5.60
2014,01,28,08,27,5.60
2014,01,28,08,28,5.50
2014,01,28,08,29,5.50
2014,01,28,08,30,5.50
2014,01,28,08,31,5.40
2014,01,28,08,32,5.40
2014,01,28,08,33,5.40
2014,01,28,08,34,5.40
2014,01,28,08,35,5.30
2014,01,28,08,36,5.30
2014,01,28,08,37,5.30
2014,01,28,08,38,5.30
2014,01,28,08,39,5.20
2014,01,28,08,40,5.20
2014,01,28,08,41,5.20
2014,01,28,08,42,5.20
2014,01,28,08,43,5.10
2014,01,28,08,44,5.10
2014,01,28,08,45,5.10
2014,01,28,08,46,5.10
2014,01,28,08,47,5.10
2014,01,28,08,48,5.10
2014,01,28,08,49,5.10
2014,01,28,08,50,5.10
2014,01,28,08,51,5.10
2014,01,28,08,52,5.10
2014,01,28,08,53,5.10
2014,01,28,08,54,5.10
2014,01,28,08,55,5.10
2014,01,28,08,56,5.10
2014,01,28,08,57,5.10
2014,01,28,08,58,5.20
2014,01,28,08,59,5.20
2014,01,28,09,00,5.20
2014,01,28,09,01,5.20
2014,01,28,09,02,5.20
2014,01,28,09,03,5.20
2014,01,28,09,04,5.20
2014,01,28,09,05,5.30
2014,01,28,09,06,5.30
2014,01,28,09,07,5.30
2014,01,28,09,08,5.30
2014,01,28,09,09,5.30
2014,01,28,09,10,5.30
2014,01,28,09,11,5.40
2014,01,28,09,12,5.40
2014,01,28,09,13,5.40
2014,01,28,09,14,5.40
2014,01,28,09,15,5.40
2014,01,28,09,16,5.40
2014,01,28,09,17,5.50
2014,01,28,09,18,5.50
2014,01,28,09,19,5.50
2014,01,28,09,20,5.60
2014,01,28,09,21,5.60
2014,01,28,09,22,5.60
2014,01,28,09,23,5.60
2014,01,28,09,24,5.60
2014,01,28,09,25,5.70
2014,01,28,09,26,5.70
2014,01,28,09,27,5.70
2014,01,28,09,28,5.70
2014,01,28,09,29,5.70
2014,01,28,09,30,5.70
2014,01,28,09,31,5.70
2014,01,28,09,32,5.70
2014,01,28,09,33,5.70
2014,01,28,09,34,5.70
2014,01,28,09,35,5.70
2014,01,28,09,36,5.70
2014,01,28,09,37,5.70
2014,01,28,09,38,5.70
2014,01,28,09,39,5.70
2014,01,28,09,40,5.70
2014,01,28,09,41,5.80
2014,01,28,09,42,5.80
2014,01,28,09,43,5.80
2014,01,28,09,44,5.80
2014,01,28,09,45,5.80
2014,01,28,09,46,5.80
2014,01,28,09,47,5.80
2014,01,28,09,48,5.80
2014,01,28,09,49,5.80
2014,01,28,09,50,5.80
2014,01,28,09,51,5.90
2014,01,28,09,52,5.90
2014,01,28,09,53,5.90
2014,01,28,09,54,5.90
2014,01,28,09,55,5.90
2014,01,28,09,56,6.00
2014,01,28,09,57,6.00
2014,01,28,09,58,6.00
2014,01,28,09,59,6.00
2014,01,28,10,00,6.00
2014,01,28,10,01,6.00
2014,01,28,10,02,6.00
2014,01,28,10,03,6.00
2014,01,28,10,04,6.10
2014,01,28,10,05,6.10
2014,01,28,10,06,6.10
2014,01,28,10,07,6.10
2014,01,28,10,08,6.10
2014,01,28,10,09,6.10
2014,01,28,10,10,6.10
2014,01,28,10,11,6.10
2014,01,28,10,12,6.10
2014,01,28,10,13,6.10
2014,01,28,10,14,6.10
2014,01,28,10,15,6.10
2014,01,28,10,16,6.10
2014,01,28,10,17,6.10
2014,01,28,10,18,6.10
2014,01,28,10,19,6.10
2014,01,28,10,20,6.10
2014,01,28,10,21,6.10
2014,01,28,10,22,6.10
2014,01,28,10,23,6.10
2014,01,28,10,24,6.10
2014,01,28,10,25,6.10
2014,01,28,10,26,6.10
2014,01,28,10,27,6.10
2014,01,28,10,28,6.10
2014,01,28,10,29,6.20
2014,01,28,10,30,6.20
2014,01,28,10,31,6.20
2014,01,28,10,32,6.20
2014,01,28,10,33,6.20
2014,01,28,10,34,6.20
2014,01,28,10,35,6.30
2014,01,28,10,36,6.30
2014,01,28,10,37,6.30
2014,01,28,10,38,6.40
2014,01,28,10,39,6.40
2014,01,28,10,40,6.40
2014,01,28,10,41,6.40
2014,01,28,10,42,6.40
2014,01,28,10,43,6.40
2014,01,28,10,44,6.40
2014,01,28,10,45,6.40
2014,01,28,10,46,6.40
2014,01,28,10,47,6.50
2014,01,28,10,48,6.50
2014,01,28,10,49,6.50
2014,01,28,10,50,6.50
2014,01,28,10,51,6.50
2014,01,28,10,52,6.50
2014,01,28,10,53,6.60
2014,01,28,10,54,6.60
2014,01,28,10,55,6.60
2014,01,28,10,56,6.60
2014,01,28,10,57,6.60
2014,01,28,10,58,6.60
2014,01,28,10,59,6.70
2014,01,28,11,00,6.70
2014,01,28,11,01,6.70
2014,01,28,11,02,6.70
2014,01,28,11,03,6.70
2014,01,28,11,04,6.70
2014,01,28,11,05,6.70
2014,01,28,11,06,6.70
2014,01,28,11,07,6.70
2014,01,28,11,08,6.70
2014,01,28,11,09,6.70
2014,01,28,11,10,6.70
2014,01,28,11,11,6.70
2014,01,28,11,12,6.70
2014,01,28,11,13,6.70
2014,01,28,11,14,6.70
2014,01,28,11,15,6.70
2014,01,28,11,16,6.70
2014,01,28,11,17,6.70
2014,01,28,11,18,6.70
2014,01,28,11,19,6.70
2014,01,28,11,20,6.70
2014,01,28,11,21,6.80
2014,01,28,11,22,6.80
2014,01,28,11,23,6.80
2014,01,28,11,24,6.80
2014,01,28,11,25,6.80
2014,01,28,11,26,6.80
2014,01,28,11,27,6.90
2014,01,28,11,28,6.90
2014,01,28,11,29,6.90
2014,01,28,11,30,6.90
2014,01,28,11,31,7.00
2014,01,28,11,32,7.00
2014,01,28,11,33,7.00
2014,01,28,11,34,7.00
2014,01,28,11,35,7.10
2014,01,28,11,36,7.10
2014,01,28,11,37,7.10
2014,01,28,11,38,7.10
2014,01,28,11,39,7.20
2014,01,28,11,40,7.20
2014,01,28,11,41,7.20
2014,01,28,11,42,7.20
2014,01,28,11,43,7.20
2014,01,28,11,44,7.20
2014,01,28,11,45,7.20
2014,01,28,11,46,7.20
2014,01,28,11,47,7.20
2014,01,28,11,48,7.30
2014,01,28,11,49,7.30
2014,01,28,11,50,7.30
2014,01,28,11,51,7.20
2014,01,28,11,52,7.20
2014,01,28,11,53,7.20
2014,01,28,11,54,7.20
2014,01,28,11,55,7.20
2014,01,28,11,56,7.20
2014,01,28,11,57,7.20
2014,01,28,11,58,7.20
2014,01,28,11,59,7.20
2014,01,28,12,00,7.20
2014,01,28,12,01,7.10
2014,01,28,12,02,7.10
2014,01,28,12,03,7.10
2014,01,28,12,04,7.00
2014,01,28,12,05,7.00
2014,01,28,12,06,6.90
2014,01,28,12,07,6.90
2014,01,28,12,08,6.90
2014,01,28,12,09,6.90
2014,01,28,12,10,6.90
2014,01,28,12,11,6.90
2014,01,28,12,12,6.90
2014,01,28,12,13,6.90
2014,01,28,12,14,6.90
2014,01,28,12,15,6.80
2014,01,28,12,16,6.80
2014,01,28,12,17,6.80
2014,01,28,12,18,6.80
2014,01,28,12,19,6.80
2014,01,28,12,20,6.70
2014,01,28,12,21,6.70
2014,01,28,12,22,6.70
2014,01,28,12,23,6.70
2014,01,28,12,24,6.70
2014,01,28,12,25,6.70
2014,01,28,12,26,6.70
2014,01,28,12,27,6.70
2014,01,28,12,28,6.70
2014,01,28,12,29,6.70
2014,01,28,12,30,6.70
2014,01,28,12,31,6.70
2014,01,28,12,32,6.70
2014,01,28,12,33,6.60
2014,01,28,12,34,6.60
2014,01,28,12,35,6.60
2014,01,28,12,36,6.60
2014,01,28,12,37,6.60
2014,01,28,12,38,6.60
2014,01,28,12,39,6.60
2014,01,28,12,40,6.60
2014,01,28,12,41,6.60
2014,01,28,12,42,6.60
2014,01,28,12,43,6.60
2014,01,28,12,44,6.60
2014,01,28,12,45,6.50
2014,01,28,12,46,6.50
2014,01,28,12,47,6.50
2014,01,28,12,48,6.50
2014,01,28,12,49,6.50
2014,01,28,12,50,6.50
2014,01,28,12,51,6.50
2014,01,28,12,52,6.40
2014,01,28,12,53,6.50
2014,01,28,12,54,6.50
2014,01,28,12,55,6.50
2014,01,28,12,56,6.50
2014,01,28,12,57,6.50
2014,01,28,12,58,6.50
2014,01,28,12,59,6.50
2014,01,28,13,00,6.50
2014,01,28,13,01,6.50
2014,01,28,13,02,6.50
2014,01,28,13,03,6.50
2014,01,28,13,04,6.50
2014,01,28,13,05,6.50
2014,01,28,13,06,6.50
2014,01,28,13,07,6.60
2014,01,28,13,08,6.60
2014,01,28,13,09,6.50
2014,01,28,13,10,6.50
2014,01,28,13,11,6.50
2014,01,28,13,12,6.50
2014,01,28,13,13,6.50
2014,01,28,13,14,6.50
2014,01,28,13,15,6.50
2014,01,28,13,16,6.50
2014,01,28,13,17,6.50
2014,01,28,13,18,6.50
2014,01,28,13,19,6.50
2014,01,28,13,20,6.60
2014,01,28,13,21,6.60
2014,01,28,13,22,6.60
2014,01,28,13,23,6.60
2014,01,28,13,24,6.60
2014,01,28,13,25,6.60
2014,01,28,13,26,6.60
2014,01,28,13,27,6.60
2014,01,28,13,28,6.60
2014,01,28,13,29,6.60
2014,01,28,13,30,6.70
2014,01,28,13,31,6.70
2014,01,28,13,32,6.70
2014,01,28,13,33,6.70
2014,01,28,13,34,6.70
2014,01,28,13,35,6.80
2014,01,28,13,36,6.80
2014,01,28,13,37,6.80
2014,01,28,13,38,6.80
2014,01,28,13,39,6.80
2014,01,28,13,40,6.80
2014,01,28,13,41,6.90
2014,01,28,13,42,6.90
2014,01,28,13,43,6.90
2014,01,28,13,44,6.90
2014,01,28,13,45,6.90
2014,01,28,13,46,7.00
2014,01,28,13,47,7.00
2014,01,28,13,48,7.10
2014,01,28,13,49,7.10
2014,01,28,13,50,7.10
2014,01,28,13,51,7.10
2014,01,28,13,52,7.10
2014,01,28,13,53,7.10
2014,01,28,13,54,7.10
2014,01,28,13,55,7.20
2014,01,28,13,56,7.20
2014,01,28,13,57,7.20
2014,01,28,13,58,7.20
2014,01,28,13,59,7.20
2014,01,28,14,00,7.20
2014,01,28,14,01,7.20
2014,01,28,14,02,7.20
2014,01,28,14,03,7.20
2014,01,28,14,04,7.20
2014,01,28,14,05,7.20
2014,01,28,14,06,7.20
2014,01,28,14,07,7.20
2014,01,28,14,08,7.20
2014,01,28,14,09,7.20
2014,01,28,14,10,7.20
2014,01,28,14,11,7.30
2014,01,28,14,12,7.30
2014,01,28,14,13,7.30
2014,01,28,14,14,7.30
2014,01,28,14,15,7.30
2014,01,28,14,16,7.30
2014,01,28,14,17,7.40
2014,01,28,14,18,7.40
2014,01,28,14,19,7.40
2014,01,28,14,20,7.40
2014,01,28,14,21,7.40
2014,01,28,14,22,7.50
2014,01,28,14,23,7.50
2014,01,28,14,24,7.50
2014,01,28,14,25,7.50
2014,01,28,14,26,7.60
2014,01,28,14,27,7.60
2014,01,28,14,28,7.60
2014,01,28,14,29,7.60
2014,01,28,14,30,7.60
2014,01,28,14,31,7.70
2014,01,28,14,32,7.70
2014,01,28,14,33,7.70
2014,01,28,14,34,7.80
2014,01,28,14,35,7.80
2014,01,28,14,36,7.80
2014,01,28,14,37,7.80
2014,01,28,14,38,7.80
2014,01,28,14,39,7.80
2014,01,28,14,40,7.80
2014,01,28,14,41,7.80
2014,01,28,14,42,7.80
2014,01,28,14,43,7.80
2014,01,28,14,44,7.80
2014,01,28,14,45,7.90
2014,01,28,14,46,7.80
2014,01,28,14,47,7.90
2014,01,28,14,48,7.90
2014,01,28,14,49,7.90
2014,01,28,14,50,7.90
2014,01,28,14,51,7.80
2014,01,28,14,52,7.90
2014,01,28,14,53,7.90
2014,01,28,14,54,7.90
2014,01,28,14,55,7.90
2014,01,28,14,56,8.00
2014,01,28,14,57,8.00
2014,01,28,14,58,8.00
2014,01,28,14,59,8.00
2014,01,28,15,00,8.10
2014,01,28,15,01,8.10
2014,01,28,15,02,8.10
2014,01,28,15,03,8.10
2014,01,28,15,04,8.10
2014,01,28,15,05,8.10
2014,01,28,15,06,8.10
2014,01,28,15,07,8.10
2014,01,28,15,08,8.10
2014,01,28,15,09,8.10
2014,01,28,15,10,8.10
2014,01,28,15,11,8.10
2014,01,28,15,12,8.10
2014,01,28,15,13,8.10
2014,01,28,15,14,8.10
2014,01,28,15,15,8.10
2014,01,28,15,16,8.20
2014,01,28,15,17,8.20
2014,01,28,15,18,8.20
2014,01,28,15,19,8.20
2014,01,28,15,20,8.20
2014,01,28,15,21,8.20
2014,01,28,15,22,8.20
2014,01,28,15,23,8.10
2014,01,28,15,24,8.10
2014,01,28,15,25,8.10
2014,01,28,15,26,8.10
2014,01,28,15,27,8.10
2014,01,28,15,28,8.10
2014,01,28,15,29,8.10
2014,01,28,15,30,8.10
2014,01,28,15,31,8.10
2014,01,28,15,32,8.10
2014,01,28,15,33,8.00
2014,01,28,15,34,8.10
2014,01,28,15,35,8.00
2014,01,28,15,36,8.10
2014,01,28,15,37,8.10
2014,01,28,15,38,8.10
2014,01,28,15,39,8.10
2014,01,28,15,40,8.10
2014,01,28,15,41,8.10
2014,01,28,15,42,8.10
2014,01,28,15,43,8.00
2014,01,28,15,44,8.00
2014,01,28,15,45,8.00
2014,01,28,15,46,8.00
2014,01,28,15,47,7.90
2014,01,28,15,48,7.90
2014,01,28,15,49,7.90
2014,01,28,15,50,7.90
2014,01,28,15,51,7.90
2014,01,28,15,52,7.90
2014,01,28,15,53,7.80
2014,01,28,15,54,7.80
2014,01,28,15,55,7.80
2014,01,28,15,56,7.80
2014,01,28,15,57,7.80
2014,01,28,15,58,7.80
2014,01,28,15,59,7.80
2014,01,28,16,00,7.80
2014,01,28,16,01,7.80
2014,01,28,16,02,7.80
2014,01,28,16,03,7.80
2014,01,28,16,04,7.80
2014,01,28,16,05,7.80
2014,01,28,16,06,7.80
2014,01,28,16,07,7.80
2014,01,28,16,08,7.80
2014,01,28,16,09,7.80
2014,01,28,16,10,7.80
2014,01,28,16,11,7.80
2014,01,28,16,12,7.80
2014,01,28,16,13,7.80
2014,01,28,16,14,7.80
2014,01,28,16,15,7.80
2014,01,28,16,16,7.80
2014,01,28,16,17,7.80
2014,01,28,16,18,7.80
2014,01,28,16,19,7.80
2014,01,28,16,20,7.80
2014,01,28,16,21,7.80
2014,01,28,16,22,7.80
2014,01,28,16,23,7.70
2014,01,28,16,24,7.70
2014,01,28,16,25,7.70
2014,01,28,16,26,7.60
2014,01,28,16,27,7.60
2014,01,28,16,28,7.60
2014,01,28,16,29,7.60
2014,01,28,16,30,7.50
2014,01,28,16,31,7.50
2014,01,28,16,32,7.50
2014,01,28,16,33,7.50
2014,01,28,16,34,7.50
2014,01,28,16,35,7.50
2014,01,28,16,36,7.40
2014,01,28,16,37,7.40
2014,01,28,16,38,7.40
2014,01,28,16,39,7.40
2014,01,28,16,40,7.30
2014,01,28,16,41,7.30
2014,01,28,16,42,7.20
2014,01,28,16,43,7.20
2014,01,28,16,44,7.20
2014,01,28,16,45,7.20
2014,01,28,16,46,7.20
2014,01,28,16,47,7.20
2014,01,28,16,48,7.20
2014,01,28,16,49,7.20
2014,01,28,16,50,7.10
2014,01,28,16,51,7.10
2014,01,28,16,52,7.10
2014,01,28,16,53,7.00
2014,01,28,16,54,7.00
2014,01,28,16,55,7.00
2014,01,28,16,56,6.90
2014,01,28,16,57,6.90
2014,01,28,16,58,6.90
2014,01,28,16,59,6.90
2014,01,28,17,00,6.80
2014,01,28,17,01,6.80
2014,01,28,17,02,6.80
2014,01,28,17,03,6.80
2014,01,28,17,04,6.80
2014,01,28,17,05,6.70
2014,01,28,17,06,6.70
2014,01,28,17,07,6.70
2014,01,28,17,08,6.70
2014,01,28,17,09,6.70
2014,01,28,17,10,6.60
2014,01,28,17,11,6.60
2014,01,28,17,12,6.60
2014,01,28,17,13,6.60
2014,01,28,17,14,6.50
2014,01,28,17,15,6.50
2014,01,28,17,16,6.40
2014,01,28,17,17,6.40
2014,01,28,17,18,6.40
2014,01,28,17,19,6.40
2014,01,28,17,20,6.40
2014,01,28,17,21,6.30
2014,01,28,17,22,6.30
2014,01,28,17,23,6.30
2014,01,28,17,24,6.30
2014,01,28,17,25,6.30
2014,01,28,17,26,6.30
2014,01,28,17,27,6.30
2014,01,28,17,28,6.30
2014,01,28,17,29,6.30
2014,01,28,17,30,6.30
2014,01,28,17,31,6.30
2014,01,28,17,32,6.30
2014,01,28,17,33,6.30
2014,01,28,17,34,6.30
2014,01,28,17,35,6.30
2014,01,28,17,36,6.30
2014,01,28,17,37,6.20
2014,01,28,17,38,6.20
2014,01,28,17,39,6.20
2014,01,28,17,40,6.20
2014,01,28,17,41,6.20
2014,01,28,17,42,6.20
2014,01,28,17,43,6.20
2014,01,28,17,44,6.20
2014,01,28,17,45,6.20
2014,01,28,17,46,6.20
2014,01,28,17,47,6.20
2014,01,28,17,48,6.20
2014,01,28,17,49,6.20
2014,01,28,17,50,6.20
2014,01,28,17,51,6.20
2014,01,28,17,52,6.20
2014,01,28,17,53,6.20
2014,01,28,17,54,6.20
2014,01,28,17,55,6.20
2014,01,28,17,56,6.20
2014,01,28,17,57,6.20
2014,01,28,17,58,6.20
2014,01,28,17,59,6.20
2014,01,28,18,00,6.10
2014,01,28,18,01,6.10
2014,01,28,18,02,6.10
2014,01,28,18,03,6.10
2014,01,28,18,04,6.10
2014,01,28,18,05,6.10
2014,01,28,18,06,6.10
2014,01,28,18,07,6.10
2014,01,28,18,08,6.10
2014,01,28,18,09,6.10